Weather History for 71108 - December, 2012

Change the Weather History Date:

Sunday, December 30, 2012

  Actual Average Record
Temperature  
Mean Temperature 32 °F -  
Max Temperature 37 °F 42 °F - ()
Min Temperature 27 °F 30 °F - ()
Degree Days  
Heating Degree Days 33    
Moisture  
Dew Point 29 °F    
Average Humidity 95    
Maximum Humidity 100    
Minimum Humidity 75    
Precipitation  
Precipitation 0.00 in 0.26 in - ()
Sea Level Pressure  
Sea Level Pressure 30.31 in    
Wind  
Wind Speed 4 mph ()    
Max Wind Speed 9 mph    
Max Gust Speed -    
Visibility 7.5 miles    
Events Fog    
T = Trace of Precipitation, MM = Missing Value Source: Averaged Metar Reports

Daily Weather History Graph

Daily Weather History Graph

Search for Another Location

Airport or City:

Trip Planner

Search our weather history database for the weather conditions in past years. The results will help you decide how hot, cold, wet, or windy it might be!

Date:

Astronomy

Dec. 30, 2012 Rise Set
Actual Time 8:03 AM PST 4:21 PM PST
Civil Twilight 7:26 AM PST 4:58 PM PST
Nautical Twilight 6:46 AM PST 5:38 PM PST
Astronomical Twilight 6:07 AM PST 6:17 PM PST
Moon 7:12 PM PST (12/30) 9:02 AM PST (12/30)
Length of Visible Light 9h 32m
Length of Day
8h 17m
Waning Gibbous, 95% of the Moon is Illuminated
Dec 30
Waning Gibbous
Jan 4
Last Quarter
Jan 11
New
Jan 18
First Quarter
Jan 26
Full

Hourly Weather History & Observations

Time (PST) Temp. Windchill Dew Point Humidity Pressure Visibility Wind Dir Wind Speed Gust Speed Precip Events Conditions
12:00 AM 30.2 °F 24.3 °F 30.2 °F 100% 30.25 in 10.0 mi WNW 5.8 mph - N/A   Scattered Clouds
1:00 AM 30.2 °F - 30.2 °F 100% 30.27 in 10.0 mi Calm Calm - N/A   Scattered Clouds
2:00 AM 30.2 °F - 30.2 °F 100% 30.28 in 10.0 mi Calm Calm - N/A   Partly Cloudy
2:07 AM 28.4 °F 23.3 °F 28.4 °F 100% 30.28 in 0.6 mi NW 4.6 mph - N/A   Mostly Cloudy
3:00 AM 28.4 °F 22.2 °F 28.4 °F 100% 30.28 in 10.0 mi North 5.8 mph - N/A   Partly Cloudy
4:00 AM 28 °F - 28 °F 100% 30.30 in 10 mi Calm Calm - -   Scattered Clouds
4:00 AM 28.4 °F 24.6 °F 28.4 °F 100% 30.29 in 10.0 mi North 3.5 mph - N/A   Partly Cloudy
5:00 AM 30.2 °F 21.9 °F 30.2 °F 100% 30.30 in 15.0 mi North 9.2 mph - N/A   Clear
6:00 AM 30.2 °F 23.4 °F 30.2 °F 100% 30.30 in 5.0 mi NE 6.9 mph - N/A   Mostly Cloudy
6:12 AM 28.4 °F 21.2 °F 28.4 °F 100% 30.30 in 0.5 mi NNE 6.9 mph - N/A Fog Light Freezing Fog
6:25 AM 28.4 °F 23.3 °F 28.4 °F 100% 30.30 in 0.4 mi NE 4.6 mph - N/A Fog Light Freezing Fog
6:43 AM 28.4 °F 22.2 °F 28.4 °F 100% 30.30 in 10.0 mi NNE 5.8 mph - N/A   Clear
7:00 AM 28.4 °F 22.2 °F 28.4 °F 100% 30.30 in 30.0 mi NE 5.8 mph - N/A   Clear
7:17 AM 28.4 °F 22.2 °F 28.4 °F 100% 30.30 in 0.5 mi NE 5.8 mph - N/A Fog Light Freezing Fog
7:28 AM 28.4 °F 22.2 °F 28.4 °F 100% 30.31 in 0.4 mi NNE 5.8 mph - N/A Fog Light Freezing Fog
7:45 AM 28.4 °F 21.2 °F 28.4 °F 100% 30.31 in 0.2 mi NNE 6.9 mph - N/A Fog Light Freezing Fog
8:00 AM 28.4 °F 23.3 °F 28.4 °F 100% 30.31 in 0.4 mi NE 4.6 mph - N/A Fog Light Freezing Fog
8:24 AM 28.4 °F 23.3 °F 28.4 °F 100% 30.31 in 0.8 mi NNE 4.6 mph - N/A   Clear
8:31 AM 28.4 °F 22.2 °F 26.6 °F 93% 30.31 in 30.0 mi North 5.8 mph - N/A   Clear
8:38 AM 28.4 °F 21.2 °F 28.4 °F 100% 30.32 in 30.0 mi North 6.9 mph - N/A Fog Clear
9:00 AM 28.4 °F 24.6 °F 28.4 °F 100% 30.33 in 30.0 mi NE 3.5 mph - N/A Fog Clear
9:27 AM 30.2 °F 26.7 °F 30.2 °F 100% 30.33 in 30.0 mi NNE 3.5 mph - N/A   Clear
10:00 AM 32 °F - 32 °F 100% 30.34 in 28 mi NNE 4.6 mph - -   Partly Cloudy
10:00 AM 32.0 °F 26.4 °F 32.0 °F 100% 30.34 in 30.0 mi NNE 5.8 mph - N/A   Scattered Clouds
11:00 AM 33.8 °F - 32.0 °F 93% 30.35 in 30.0 mi North 2.3 mph - N/A   Scattered Clouds
12:00 PM 35.6 °F - 32.0 °F 87% 30.33 in 30.0 mi Variable 2.3 mph - N/A   Partly Cloudy
1:00 PM 35.6 °F 31.7 °F 32.0 °F 87% 30.33 in 30.0 mi ESE 4.6 mph - N/A   Scattered Clouds
2:00 PM 37.4 °F 32.8 °F 30.2 °F 75% 30.32 in 30.0 mi East 5.8 mph - N/A   Partly Cloudy
3:00 PM 37.4 °F 32.1 °F 30.2 °F 75% 30.32 in 30.0 mi East 6.9 mph - N/A   Mostly Cloudy
4:00 PM 35 °F - 30 °F 76% 30.32 in 28 mi East 5.8 mph - -   Scattered Clouds
4:00 PM 35.6 °F 30.7 °F 30.2 °F 81% 30.32 in 30.0 mi East 5.8 mph - N/A   Mostly Cloudy
5:00 PM 33.8 °F 30.8 °F 30.2 °F 87% 30.31 in 30.0 mi East 3.5 mph - N/A   Mostly Cloudy
6:00 PM 30.2 °F - 28.4 °F 93% 30.30 in 15.0 mi North 2.3 mph - N/A   Partly Cloudy
7:00 PM 30.2 °F 25.4 °F 28.4 °F 93% 30.31 in 15.0 mi North 4.6 mph - N/A   Partly Cloudy
8:00 PM 30.2 °F - 28.4 °F 93% 30.31 in 15.0 mi Calm Calm - N/A   Partly Cloudy
9:00 PM 28.4 °F 24.6 °F 28.4 °F 100% 30.31 in 10.0 mi North 3.5 mph - N/A   Scattered Clouds
10:00 PM 28 °F - 27 °F 96% 30.32 in 10 mi North 3.5 mph - -   Scattered Clouds
10:00 PM 28.4 °F 24.6 °F 26.6 °F 93% 30.32 in 10.0 mi North 3.5 mph - N/A   Scattered Clouds
11:00 PM 28.4 °F 24.6 °F 26.6 °F 93% 30.32 in 10.0 mi North 3.5 mph - N/A   Mostly Cloudy